Погода в Обихиро

Япония     42°54′15″N   143°10′02″E
темп.,
°C
ветер,
м/с
пор.,
м/с
влажн.,
%
обл.,
%
осадки,
мм/ч
давл.,
гПа
погр.,
м
12 мая, ср
ср1200:00+5св117576 0.0 1020104
03:00+3в117928 0.0 102155
06:00+4всв11676 0.0 1023199
09:00+10ююв11593 0.0 1023915
12:00+14ююв32461 0.0 10211309
15:00+11ююв776413 0.0 1021840
18:00+7юв457546 0.0 1023475
21:00+5вюв2379100 0.0 1024244
13 мая, чт
чт1300:00+5вюв1289100 0.0 1023222
03:00+5ссв1191100 0.0 1022257
06:00+6св1187100 0.0 1021313
09:00+9юв1275100 0.1 1019497
12:00+12юв2274100 0.0 1017668
15:00+13юв3274100 0.0 1015529
18:00+10юв2290100 0.0 101572
21:00+9вюв0094100 0.0 101610
14 мая, пт
пт1400:00+8ссз0195100 0.0 101510
03:00+8ссз1191100 0.0 101410
06:00+10с1177100 0.0 101492
09:00+16вюв015379 0.0 1013431
12:00+21юз253915 0.0 10111412
15:00+22сз77332 0.0 10102638
18:00+15зюз02602 0.0 101251
21:00+9ююв11832 0.0 101513
15 мая, сб
сб1500:00+9ссз11796 0.0 101510
03:00+8сз1171100 0.0 101612
06:00+12зсз116130 0.0 101683
09:00+19юз234079 0.0 1016594
12:00+20юв4344100 0.0 1015836
15:00+15юв566491 0.0 1015345
18:00+10юв2480100 0.0 1016218
21:00+6юв1296100 0.0 101660
16 мая, вс
вс1600:00+7в1195100 0.0 1015124
03:00+7всв1193100 0.0 101277
06:00+8в228998 0.0 1012350
09:00+12вюв2276100 0.0 1010495
12:00+18вюв2367100 0.0 1006852
15:00+15ссв1390100 1.1 1005123
18:00+13с1195100 0.8 100519
21:00+13сз1196100 1.4 100415